Regional Weather Roundup
Issued by NWS

Home | Current Version | Previous Version | Text Only | Print | Product List | Glossary On
Versions: 1 2 3 4 5 6 7 8 9 10 11 12 13 14 15 16 17 18 19 20 21 22 23 24 25 26 27
000
ASUS45 KBOU 251107
RWRCO

WEATHER ROUNDUP FOR COLORADO
NATIONAL WEATHER SERVICE DENVER/BOULDER CO
400 AM MST SAT FEB 25 2017

NOTE: "FAIR" INDICATES FEW OR NO CLOUDS BELOW 12000 FEET WITH NO
SIGNIFICANT WEATHER AND/OR OBSTRUCTIONS TO VISIBILITY.

COZ001>005-013-030-031-251200-
...NORTHWEST COLORADO...

CITY           SKY/WX    TMP DP  RH WIND       PRES   REMARKS
CRAIG          CLOUDY    11   6  81 CALM      30.04F
HAYDEN         FAIR      10   5  79 CALM      30.02S
MEEKER         FAIR       6   1  80 NE3       30.03F
MOUNT WERNER   NOT AVBL
STEAMBOAT SPGS CLOUDY     5   3  89 CALM      30.00F
WALDEN         NOT AVBL
$$

COZ006>008-011-251200-
...WEST CENTRAL VALLEYS...

CITY           SKY/WX    TMP DP  RH WIND       PRES   REMARKS
GRAND JUNCTION FAIR      16  14  92 E6        30.08F WCI   7
MONTROSE       FAIR      13   7  77 S7        30.10F WCI   3
EAGLE          FAIR       7   3  84 E8        30.04F WCI  -6
RIFLE          FAIR      10   7  87 CALM      30.08F
DELTA          FAIR      20  13  74 S3        30.10S
NUCLA          FAIR      16   7  67 E8        30.10S WCI   5
$$

COZ017>023-064>068-251200-
...SOUTHWEST COLORADO...

CITY           SKY/WX    TMP DP  RH WIND       PRES   REMARKS
DURANGO        FAIR      14   6  70 NE5       30.03F WCI   6
CORTEZ         FAIR      13   9  84 NE3       30.08S
PAGOSA SPRINGS FAIR       5   1  86 CALM      30.02R
TELLURIDE      MOCLDY     8   3  79 SE5       29.97F WCI   0
WOLF CREEK PAS FAIR      -4  -6  92 SW15      29.87F WCI -25
$$

COZ009-010-012-014-032>034-037-058>063-251200-
...CENTRAL COLORADO...

CITY           SKY/WX    TMP DP  RH WIND       PRES   REMARKS
ASPEN          FAIR       3  -2  79 SW8       29.95F WCI -10
BUENA VISTA    FAIR      10  -1  59 NW10      29.93F WCI  -3
COPPER MTN     MOCLDY     0  -8  71 MISG      29.74F
BERTHOUD PASS  CLOUDY    -9 -20  59 NW15G25   29.69F WCI -31
COTTONWOOD PAS FAIR      10  -8  44 W20G29    29.83F WCI  -8
GUNNISON       FAIR      -2  -4  91 CALM      30.00F
KREMMLING      MOCLDY    14   9  79 SE3       29.98S
LEADVILLE      CLOUDY     2  -5  72 N5        29.84F WCI  -8
MONARCH PASS   CLOUDY    -4  -8  84 W26       29.87S WCI -30
SALIDA         FAIR      17  -1  44 W14       30.02S WCI   3
SUNLIGHT       NOT AVBL
WILKERSON PASS FAIR       0  -8  71 W14G29    29.78S WCI -19
$$

COZ069>075-251200-
...SAN LUIS VALLEY/SANGRE DE CRISTO MOUNTAINS...

CITY           SKY/WX    TMP DP  RH WIND       PRES   REMARKS
ALAMOSA        FAIR      12   5  73 NW3       29.98S
LA VETA PASS   FAIR       5   0  78 SW14G24   29.84F WCI -12
SAGUACHE       FAIR      10   1  67 NW7       29.98S WCI   0
$$

COZ035-036-038>040-251200-
...NORTHERN COLORADO FRONT RANGE...

CITY           SKY/WX    TMP DP  RH WIND       PRES   REMARKS
DENVER INTL AP FAIR      17  10  74 S15       29.94S WCI   2
DMNS CITY PARK   N/A     20   9  62 W5G12     29.94F WCI  13
AURORA         PTCLDY    15  10  79 S13       29.94S WCI   1
FRONT RANGE AP FAIR      19  14  79 SW15      29.94F WCI   5
ERIE MUNI ARPT FAIR      11   9  92 CALM      29.96R
BOULDER MUN AP FAIR      16  12  86 SW3       29.94S
CENTENNIAL     FAIR      13   6  74 S6        29.93F WCI   4
BROOMFIELD     FAIR      23   5  46 NW8       29.94S WCI  14
FORT COLLINS   FAIR       9   5  84 NW3       29.97S
LONGMONT       FAIR      11   6  81 NW3       29.98S
$$

COZ041-046-047-076>085-087-088-251200-
...PIKES PEAK/PALMER DIVIDE AND SOUTHERN FOOTHILLS...

CITY           SKY/WX    TMP DP  RH WIND       PRES   REMARKS
COLO. SPRINGS  FAIR      13   8  81 E5        29.97F WCI   5
A. F. ACADEMY  FAIR       8   4  82 N5        29.94F WCI   0
SCHRIEVER AFB  FLURRIES  10   7  85 SW5       29.97F WCI   2
ELLICOTT       MOCLDY   N/A N/A N/A N5          N/A
FALCON         MOCLDY    11   9  92 SW7       29.93F WCI   0
FORT CARSON    FAIR       8   4  84 NW7       29.98F WCI  -4
LIMON          FAIR      16  11  80 VRB5      29.97F WCI   9
MONUMENT HILL  FAIR       7   3  85 SW7       29.91F WCI  -5
TRINIDAD       FAIR      11   5  77 W9        29.99F WCI  -2
$$

COZ042>045-048>051-090-091-251200-
...NORTHEAST COLORADO...

CITY           SKY/WX    TMP DP  RH WIND       PRES   REMARKS
GREELEY ARPT   FAIR      10   7  87 NW6       29.99F WCI   0
AKRON          FAIR      16  11  80 SW9       29.96F WCI   4
BURLINGTON     MOCLDY    20  16  84 S10       30.03F WCI   9
WRAY           NOT AVBL
STERLING       FAIR       3   1  92 SW3       29.99F
HOLYOKE        FAIR      12   9  85 SW7       30.01F WCI   2
FORT MORGAN    FAIR      13  11  89 W6        29.98F WCI   4
$$

COZ086-089-092>099-251200-
...SOUTHEAST COLORADO...

CITY           SKY/WX    TMP DP  RH WIND       PRES   REMARKS
PUEBLO         FAIR      12   6  77 NE6       30.03F WCI   3
LA JUNTA       FAIR      20  14  77 E3        30.05F
LAMAR          MOCLDY    17  14  88 SW5       30.08S WCI  10
SPRINGFIELD      N/A      8   5  87 SW6       30.07F WCI  -2
$$




USA.gov is the U.S. government's official web portal to all federal, state and local government web resources and services.